www.pogodaiklimat.ru

Погода и климат >> Архив погоды >> Россия >> Магаданская область >> Кегали


ПОГОДА в Кегали

  • Прогноз погоды в Кегали
  • Монитор погоды в Кегали

АРХИВ ПОГОДЫ в Кегали

Время (UTC), дата Ветер
(напр.,м/с)
 
Видим.   Явления Облачность Т
(С)
Тd
(С)
f
(%)
Тe
(С)
Тes
(С)
Комфортность P
(гПа)
Po
(гПа)
Тmin
(С)
Tmax
(С)
R
(мм)
R24
(мм)
S
(см)
03 12.02 З 1 50 км ясно -35.0 -39.4 64 -40 -39 опасность
обморожения
1015.6 962.7
06 12.02 штиль 0 50 км ясно -35.5 -39.7 65 -36 -36 опасность
обморожения
1017.0 964.0
09 12.02 ЮВ 1 50 км ледяные иглы {снег} ясно -40.5 -44.5 65 -46 -46 опасность
обморожения
1019.6 965.3 -34.2
12 12.02 штиль 0 50 км ледяные иглы {снег} ?/? -50.1 -48.3 100 -50 -50 опасность
обморожения
1021.4 966.1
15 12.02 Ю 2 50 км ледяные иглы {снег} ясно -46.1 -49.9 65 -56 -56 опасность
обморожения
1023.8 968.0
18 12.02 ЮЗ 1 50 км {снег} ясно -46.6 -50.8 62 -53 -53 опасность
обморожения
1023.9 968.0
21 12.02 штиль 0 50 км ясно -47.0 -50.8 65 -47 -47 опасность
обморожения
1024.9 968.8 -47.3 39
00 13.02 штиль 0 50 км 3/0
[Ci sp]
-45.0 -49.1 63 -45 -44 опасность
обморожения
1027.8 972.0 -47.9
03 13.02 З 1 50 км ясно -39.9 -44.1 64 -45 -44 опасность
обморожения
1026.5 972.0
06 13.02 С 1 50 км ясно -40.0 -44.0 65 -45 -45 опасность
обморожения
1027.9 973.3
09 13.02 Ю 1 50 км ясно -45.0 -49.1 63 -51 -51 опасность
обморожения
1032.0 976.0 -38.0
12 13.02 штиль 0 50 км ясно -48.5 -51.8 68 -49 -49 опасность
обморожения
1034.3 977.3
15 13.02 штиль 0 50 км ясно -49.2 -53.0 64 -49 -49 опасность
обморожения
1033.0 975.9
18 13.02 штиль 0 50 км ясно -49.4 -53.0 66 -49 -49 опасность
обморожения
1031.5 974.5
21 13.02 штиль 0 50 км ясно -48.2 -51.8 66 -48 -48 опасность
обморожения
1030.2 973.5 -49.6 39
00 14.02 штиль 0 50 км ясно -41.0 -45.1 64 -41 -40 опасность
обморожения
1026.8 972.0
03 14.02 Ю 2 50 км 3/0
[Ci sp]
-36.6 -41.5 60 -45 -45 опасность
обморожения
1022.9 969.3
06 14.02 ЮВ 1 50 км 8/0
[Cs]
-38.0 -43.5 56 -43 -43 опасность
обморожения
1020.5 966.7
09 14.02 штиль 0 50 км ясно -42.1 -46.3 63 -42 -42 опасность
обморожения
1018.6 964.0 -35.6
12 14.02 штиль 0 50 км 8/0
[Cs]
-42.0 -46.2 63 -42 -42 опасность
обморожения
1015.7 961.3
15 14.02 штиль 0 50 км 10/0
[Cs]
-40.0 -44.0 65 -40 -40 опасность
обморожения
1012.5 958.7
18 14.02 штиль 0 10 км слаб. снег 10/0
[Cs]
-37.8 -41.9 65 -38 -38 опасность
обморожения
1009.1 956.0
21 14.02 ЮВ 1 10 км слаб. снег 10/0
[Cs]
-36.2 -40.4 65 -41 -41 опасность
обморожения
1006.6 953.9 -43.2 0.0 39
00 15.02 С 5 10 км слаб. снег {метель} 10/0
[Ac As Cs]
-31.0 -35.5 64 -44 -44 опасность
обморожения
1004.8 953.3
03 15.02 С 6 50 км позёмок {снег} 10/10 1000 м
[Sc]
-30.3 -34.9 64 -44 -44 опасность
обморожения
1003.2 952.0
06 15.02 С 5 50 км позёмок {снег} 10/10 1000 м
[Sc]
-30.2 -35.4 60 -43 -43 опасность
обморожения
1003.2 952.0
09 15.02 С 5 50 км позёмок 10/6 1000 м
[Sc Ac trans Cs]
-31.0 -35.5 64 -44 -44 опасность
обморожения
1002.0 950.7 -30.1 0.0
12 15.02 С 5 10 км слаб. снег {метель} 10/6 1000 м
[Sc As op]
-31.5 -36.0 64 -44 -44 опасность
обморожения
1002.1 950.7
15 15.02 С 5 10 км слаб. снег {метель} 10/6 1000 м
[Sc As op]
-31.6 -36.0 65 -45 -45 опасность
обморожения
1002.1 950.7
18 15.02 С 4 10 км слаб. снег {метель} 10/6 1000 м
[Sc As op]
-31.6 -43 -43 опасность
обморожения
1000.6 949.3
21 15.02 С 4 50 км позёмок {снег} 10/8 1000 м
[Sc As op]
-31.7 -36.2 64 -43 -43 опасность
обморожения
1000.7 949.2 -31.8 0.3 39
00 16.02 С 3 50 км {снег, метель} 10/8 1000 м
[Sc Ac trans Ci fib]
-30.7 -35.9 60 -40 -40 опасность
обморожения
1000.5 949.3
03 16.02 С 3 50 км 9/9 1000 м
[Sc]
-30.0 -35.2 60 -40 -40 опасность
обморожения
999.0 948.0
06 16.02 С 6 50 км позёмок 9/9 600 м
[Cb cap]
-29.5 -34.1 64 -43 -43 опасность
обморожения
997.5 946.7
09 16.02 С 6 10 км слаб. ливневой снег {метель} 10/10 600 м
[Cb cap]
-29.6 -34.0 65 -43 -43 опасность
обморожения
997.5 946.7 -29.5 0.2
12 16.02 С 5 10 км слаб. ливневой снег {метель} 10/10 600 м
[Cb cap]
-30.2 -34.6 65 -43 -43 опасность
обморожения
996.2 945.3
15 16.02 С 4 50 км позёмок {ливн. осадки} 10/10 600 м
[Cb cap]
-30.8 -35.2 65 -42 -42 опасность
обморожения
997.8 946.7
18 16.02 С 5 10 км слаб. ливневой снег {метель} 10/10 600 м
[Cb cap]
-29.6 -34.0 65 -42 -42 опасность
обморожения
997.5 946.7
21 16.02 С 4 50 км позёмок {ливн. осадки} 10/4 1000 м
[Sc As op]
-30.7 -35.1 65 -42 -42 опасность
обморожения
997.7 946.5 -31.0 0.3 39
00 17.02 СЗ 5 50 км позёмок {ливн. осадки} 10/4 1000 м
[Sc Ac As]
-29.5 -34.1 64 -42 -42 опасность
обморожения
1000.2 949.3
03 17.02 С 5 50 км позёмок 10/5 1000 м
[Sc As op]
-28.5 -34.0 59 -41 -41 опасность
обморожения
1000.0 949.3
06 17.02 С 5 10 км слаб. снег {метель} 10/8 1000 м
[Sc As op]
-28.5 -33.2 64 -41 -41 опасность
обморожения
1001.5 950.7
09 17.02 С 3 10 км слаб. снег {метель} 10/4 1000 м
[Sc As trans Cs]
-29.0 -33.5 65 -38 -38 опасность
обморожения
1004.3 953.3 -28.1 0.0
12 17.02 С 3 10 км слаб. снег {метель} 10/4 1000 м
[Sc Cs]
-28.5 -32.4 69 -38 -38 опасность
обморожения
1005.7 954.7
15 17.02 С 3 10 км слаб. снег 10/4 1000 м
[Sc Cs]
-28.1 -31.8 70 -37 -37 опасность
обморожения
1005.6 954.7
18 17.02 С 3 50 км {снег} 10/10 1000 м
[Sc]
-28.6 -33.2 64 -38 -38 опасность
обморожения
1007.1 956.0
21 17.02 С 2 50 км 10/9 1000 м
[Sc Ci sp]
-29.2 -33.7 65 -37 -37 опасность
обморожения
1007.1 955.8 -29.3 0.5 39
00 18.02 С 3 50 км 8/6 1000 м
[Sc Ac trans]
-28.6 -33.2 64 -38 -38 опасность
обморожения
1008.5 957.3
03 18.02 С 4 50 км позёмок 10/4 1000 м
[Sc Ac trans Ci fib]
-28.0 -32.7 64 -39 -39 опасность
обморожения
1008.3 957.3
06 18.02 С 2 50 км 9 баллов -29.5 -34.1 64 -37 -37 опасность
обморожения
1010.1 958.7
09 18.02 Ю 1 50 км 10/5 1000 м
[Sc Ac trans Ci sp]
-31.5 -35.1 70 -36 -36 опасность
обморожения
1011.9 960.0 -28.0
12 18.02 С 1 50 км 10 баллов -30.0 -33.7 70 -34 -34 опасность
обморожения
1013.0 961.3
15 18.02 СВ 1 50 км 6 баллов -34.5 -38.7 65 -39 -39 опасность
обморожения
1015.4 962.7
18 18.02 ЮВ 2 50 км 6 баллов -36.6 -40.8 65 -45 -45 опасность
обморожения
1017.3 964.0
21 18.02 Ю 1 50 км 3/0
[Ci fib]
-37.5 -41.9 63 -42 -42 опасность
обморожения
1017.5 963.8 -37.7 39
00 19.02 Ю 1 50 км 2 балла -35.0 -39.4 64 -40 -38 опасность
обморожения
1018.3 965.3 -39.0

 

Местоположение метеостанции Кегали (Магаданская область, Россия): широта 64.25 долгота 161.00 высота над уровнем моря 374 м.

В архиве по умолчанию представлена погода в Кегали за последнюю неделю. Архивные данные за месяц целиком и за предыдущие месяцы, начиная с января 2011 года, Вы можете получить, выбрав интересующий диапазон дат из раскрывающегося списка и нажав кнопку "Ввод!".


*Определитесь, кто Вы:
робот инопланетянин человек

Внимание! Время в таблицах - всемирное. Для получения местного времени необходимо прибавить поправку, которая равна 11 ч.

Смотрите также архив погоды в соседних городах и на ближайших метеорологических станциях:

Погода в Омолоне (Чукотка, Россия) (112 км)
Погода в Верхне-Пенжино (Камчатский край, Россия) (155 км)
Погода в Лабазной (Магаданская область, Россия) (162 км)
Погода в Эвенске (Магаданская область, Россия) (275 км)
Погода в Баимке (Чукотка, Россия) (294 км)
Погода в Омсукчане (Магаданская область, Россия) (323 км)
Погода в Каменском (Камчатский край, Россия) (325 км)
Погода в Балыгычане (Магаданская область, Россия) (337 км)
Погода в Коркодоне (Магаданская область, Россия) (344 км)
Погода в Слаутном (Камчатский край, Россия) (354 км)

Пояснения к столбцам:

Ветер - указаны скорость ветра в м/с - средняя за 10 мин, порывы в срок и между сроками (в фигурных скобках) и направление, откуда дует ветер: С - северный, СВ - северо-восточный, В - восточный, ЮВ - юго-восточный, Ю - южный, ЮЗ - юго-западный, З - западный, СЗ - северо-западный.
Видимость - горизонтальная дальность видимости в метрах или километрах. При видимости от 1 до 10 км при отсутствии осадков обычно наблюдается дымка, при ухудшении видимости до 1 км и менее - туман. В сухую погоду видимость может ухудшаться дымом, пылью или мглою.
Явления - указаны атмосферные явления, наблюдавшиеся в срок или в последний час перед сроком; фигурными скобками обозначены явления, наблюдавшиеся между сроками (за 1-3 часа до срока); квадратными скобками обозначены град или гололедные отложения с указанием их диаметра в мм.
Облачность - указаны через наклонную черту общая и нижняя облачность в баллах и высота нижней границы облаков в метрах; квадратными скобками обозначены формы облаков: Ci - перистые, Cs - перисто-слоистые, Cc - перисто-кучевые, Ac - высококучевые, As - высокослоистые, Sc - слоисто-кучевые, Ns - слоисто-дождевые, Cu - кучевые, Cb - кучево-дождевые. Подробнее классификацию облаков см. в Атласе облаков (PDF).
T - Температура воздуха - температура, измеренная на высоте 2 м над землей.
Td - Температура точки росы - температура, при понижении до которой содержащийся в воздухе водяной пар достигнет насыщения.
f - Относительная влажность воздуха - влажноcть воздуха, измеренная на высоте 2 м над землей.
Te - Эффективная температура - температура, которую ощущает одетый по сезону человек в тени. Характеристика душности погоды. При расчете учитывается влияние влажности воздуха и скорости ветра на теплоощущения человека.
Tes - Эффективная температура на солнце - температура, которую ощущает человек, с поправкой на солнечный нагрев. Характеристика знойности погоды. Зависит от высоты солнца над горизонтом, облачности и скорости ветра. Ночью, в пасмурную погоду, а также при ветре 12 м/с и более поправка равна нулю.
P - Атмосферное давление - приведенное к уровню моря атмосферное давление.
Po - Атмосферное давление - измеренное на уровне метеостанции атмосферное давление.
Tmin - Минимальная температура - минимум температуры воздуха на высоте 2 м над землей.
Tmax - Максимальная температура - максимум температуры воздуха на высоте 2 м над землей.
R - Количество осадков - Количество выпавших осадков за период времени, мм. При наведении курсора мыши на число - период времени, за который выпало указанное количество осадков.
R24 - Количество осадков - Количество выпавших осадков за 24 часа, мм.
S - Снежный покров - Высота снежного покрова, см. При наведении курсора мыши на число - состояние снежного покрова и степень покрытия местности в баллах.